Simultaneous Nadir Overpasses (SNOs) Predictions

Prediction of SNOs between FY3D and AQUA Satellite Orbit:

Table of predicted SNOs for the next 14.0 days since TLE Epoch: 3/13/2021
Index Date (FY3D) Time (FY3D) Lat,Lon (FY3D) SZA (FY3D ) Date (AQUA) Time (AQUA) Lat,Lon (AQUA) SZA (AQUA ) Distance(km) Time Diff (sec)
1 03/13/2021 13:24:29 -68.80, 159.34 108.60 03/13/2021 13:25:42 -68.98, 160.55 108.43 52.45 73
2 03/13/2021 14:32:57 46.01, 174.72 129.24 03/13/2021 14:32:27 46.06, 174.35 129.43 29.15 30
3 03/13/2021 15:00:24 -50.16, 148.09 126.52 03/13/2021 14:59:12 -50.35, 149.13 126.22 77.16 72
4 03/16/2021 05:57:39 -49.25, 124.67 54.74 03/16/2021 05:58:35 -49.39, 123.88 54.61 59.24 56
5 03/16/2021 06:49:16 46.02, -69.34 128.19 03/16/2021 06:48:54 46.12, -69.75 128.34 33.26 22
6 03/16/2021 07:16:34 -49.63, -95.74 128.01 03/16/2021 07:15:31 -49.81, -94.76 127.72 73.31 63
7 03/18/2021 22:13:50 -49.77,-119.17 56.27 03/18/2021 22:14:55 -49.92,-120.02 56.14 63.30 65
8 03/18/2021 23:05:36 46.03, 46.59 127.15 03/18/2021 23:05:23 46.12, 46.13 127.31 37.15 13
9 03/18/2021 23:44:54 -80.86, -79.65 90.19 03/18/2021 23:43:41 -81.38, -80.88 89.92 61.49 73
10 03/21/2021 14:57:31 46.11, -29.72 46.85 03/21/2021 14:58:04 46.20, -29.22 47.07 39.68 33
11 03/21/2021 16:06:53 -65.86, -17.82 72.74 03/21/2021 16:05:40 -65.99, -18.74 72.48 43.66 73
12 03/24/2021 07:13:51 46.11, 86.21 45.86 03/24/2021 07:14:33 46.22, 86.65 46.10 35.84 42
13 03/24/2021 08:28:48 -46.96, 86.13 55.81 03/24/2021 08:27:35 -46.99, 85.85 55.58 22.00 73
14 03/26/2021 23:30:10 46.11,-157.86 44.89 03/26/2021 23:31:00 46.19,-157.46 45.10 31.79 50



Historial Predications of SNOs between FY3D and AQUA
